Radiation Dose at Monitoring Post of Fukushima Daini Nuclear Power Station
Date,Time,MP-1(microSv/h),MP-2(microSv/h),MP-3(microSv/h),MP-4(microSv/h),MP-5(microSv/h),MP-6(microSv/h),MP-7(microSv/h),Wind Direction,Wind Velocity(m/s),Rain
2021/02/05,00:00,0.180,0.160,0.257,0.245,0.240,0.142,0.087,north-northwest,3.7,No
2021/02/05,00:10,0.180,0.162,0.259,0.245,0.239,0.142,0.086,north-northwest,3.4,No
2021/02/05,00:20,0.181,0.162,0.259,0.245,0.240,0.142,0.086,north-northwest,2.8,No
2021/02/05,00:30,0.180,0.162,0.259,0.245,0.240,0.142,0.086,northwest,2.2,No
2021/02/05,00:40,0.180,0.161,0.258,0.245,0.240,0.141,0.086,west-northwest,1.7,No
2021/02/05,00:50,0.179,0.162,0.260,0.246,0.239,0.142,0.087,northwest,0.8,No
2021/02/05,01:00,0.180,0.161,0.260,0.244,0.239,0.141,0.086,west-northwest,1.1,No
2021/02/05,01:10,0.181,0.162,0.260,0.246,0.240,0.143,0.086,south,1.0,No
2021/02/05,01:20,0.181,0.162,0.259,0.246,0.240,0.142,0.087,south,1.2,No
2021/02/05,01:30,0.181,0.162,0.259,0.245,0.239,0.142,0.086,-,CALM,No
2021/02/05,01:40,0.179,0.161,0.258,0.245,0.240,0.143,0.085,south-southwest,0.9,No
2021/02/05,01:50,0.180,0.162,0.259,0.244,0.239,0.141,0.086,-,CALM,No
2021/02/05,02:00,0.180,0.162,0.259,0.246,0.239,0.143,0.086,south,0.8,No
2021/02/05,02:10,0.179,0.161,0.259,0.245,0.239,0.142,0.087,west-northwest,0.8,No
2021/02/05,02:20,0.180,0.162,0.259,0.246,0.240,0.143,0.086,west-northwest,2.8,No
2021/02/05,02:30,0.180,0.162,0.259,0.245,0.241,0.142,0.086,west-northwest,3.3,No
2021/02/05,02:40,0.181,0.161,0.259,0.245,0.241,0.143,0.086,west-northwest,3.4,No
2021/02/05,02:50,0.180,0.161,0.258,0.246,0.239,0.142,0.086,west,2.6,No
2021/02/05,03:00,0.181,0.161,0.258,0.245,0.239,0.142,0.085,north-northwest,1.0,No
2021/02/05,03:10,0.180,0.162,0.259,0.245,0.240,0.142,0.087,north-northeast,1.6,No
2021/02/05,03:20,0.180,0.162,0.260,0.245,0.238,0.143,0.086,northwest,3.1,No
2021/02/05,03:30,0.180,0.161,0.259,0.245,0.239,0.143,0.086,north-northwest,4.2,No
2021/02/05,03:40,0.180,0.163,0.260,0.245,0.240,0.142,0.086,north-northwest,4.0,No
2021/02/05,03:50,0.180,0.161,0.259,0.244,0.241,0.142,0.086,northwest,2.2,No
2021/02/05,04:00,0.181,0.161,0.259,0.244,0.238,0.143,0.086,north-northwest,2.6,No
2021/02/05,04:10,0.180,0.162,0.258,0.245,0.240,0.142,0.086,north,1.9,No
2021/02/05,04:20,0.180,0.162,0.258,0.246,0.240,0.143,0.087,north,3.5,No
2021/02/05,04:30,0.180,0.162,0.259,0.244,0.240,0.141,0.086,north,4.6,No
2021/02/05,04:40,0.180,0.162,0.259,0.245,0.240,0.142,0.086,north,2.9,No
2021/02/05,04:50,0.180,0.161,0.258,0.245,0.241,0.143,0.086,north-northwest,2.6,No
2021/02/05,05:00,0.179,0.162,0.258,0.245,0.239,0.142,0.086,northwest,2.7,No
2021/02/05,05:10,0.181,0.162,0.261,0.244,0.237,0.141,0.086,northwest,4.5,No
2021/02/05,05:20,0.180,0.161,0.258,0.246,0.239,0.141,0.086,west-northwest,5.5,No
2021/02/05,05:30,0.180,0.160,0.258,0.245,0.241,0.141,0.085,northwest,8.4,No
2021/02/05,05:40,0.180,0.161,0.258,0.244,0.240,0.142,0.086,west-northwest,7.9,No
2021/02/05,05:50,0.180,0.161,0.258,0.244,0.238,0.142,0.086,northwest,6.3,No
2021/02/05,06:00,0.180,0.161,0.257,0.244,0.239,0.141,0.086,northwest,7.7,No
2021/02/05,06:10,0.180,0.161,0.259,0.245,0.239,0.141,0.086,northwest,6.2,No
2021/02/05,06:20,0.180,0.162,0.259,0.244,0.238,0.141,0.086,west-northwest,6.4,No
2021/02/05,06:30,0.180,0.162,0.260,0.245,0.240,0.142,0.086,northwest,5.0,No
2021/02/05,06:40,0.179,0.162,0.259,0.244,0.240,0.142,0.086,northwest,3.5,No
2021/02/05,06:50,0.180,0.162,0.258,0.245,0.240,0.141,0.086,north,2.9,No
2021/02/05,07:00,0.180,0.161,0.258,0.245,0.240,0.142,0.086,north-northeast,3.1,No
2021/02/05,07:10,0.181,0.162,0.258,0.244,0.238,0.142,0.087,north-northeast,3.1,No
2021/02/05,07:20,0.180,0.161,0.258,0.245,0.239,0.141,0.086,north,5.3,No
2021/02/05,07:30,0.180,0.161,0.259,0.245,0.239,0.142,0.086,north,5.4,No
2021/02/05,07:40,0.180,0.161,0.259,0.244,0.239,0.142,0.086,north-northwest,2.4,No
2021/02/05,07:50,0.179,0.162,0.258,0.244,0.239,0.141,0.086,north-northeast,2.1,No
2021/02/05,08:00,0.180,0.161,0.259,0.245,0.240,0.142,0.086,north-northeast,1.4,No
2021/02/05,08:10,0.179,0.161,0.258,0.244,0.238,0.142,0.085,north-northeast,1.9,No
2021/02/05,08:20,0.181,0.162,0.257,0.243,0.239,0.142,0.086,east,2.4,No
2021/02/05,08:30,0.180,0.162,0.258,0.245,0.239,0.142,0.085,east,1.8,No
2021/02/05,08:40,0.179,0.161,0.259,0.244,0.238,0.143,0.085,east-southeast,2.2,No
2021/02/05,08:50,0.180,0.161,0.259,0.244,0.239,0.142,0.085,east,3.8,No
2021/02/05,09:00,0.179,0.161,0.258,0.245,0.240,0.141,0.086,east-southeast,4.3,No
2021/02/05,09:10,0.181,0.161,0.258,0.244,0.239,0.142,0.085,east,5.2,No
2021/02/05,09:20,0.181,0.161,0.258,0.244,0.241,0.141,0.086,east-southeast,4.5,No
2021/02/05,09:30,0.180,0.161,0.259,0.243,0.240,0.142,0.085,east,5.2,No
2021/02/05,09:40,0.180,0.161,0.258,0.245,0.240,0.143,0.086,east-southeast,5.1,No
2021/02/05,09:50,0.180,0.161,0.258,0.243,0.240,0.142,0.085,east,3.8,No
2021/02/05,10:00,0.179,0.160,0.257,0.244,0.239,0.142,0.085,east,3.5,No
2021/02/05,10:10,0.179,0.160,0.258,0.245,0.239,0.142,0.086,east,3.3,No
2021/02/05,10:20,0.179,0.161,0.258,0.245,0.239,0.142,0.086,east,6.4,No
2021/02/05,10:30,0.178,0.160,0.257,0.245,0.240,0.142,0.085,east-northeast,5.9,No
2021/02/05,10:40,0.179,0.161,0.256,0.246,0.240,0.142,0.086,east,3.1,No
2021/02/05,10:50,0.179,0.161,0.258,0.244,0.240,0.142,0.085,east,3.3,No
2021/02/05,11:00,0.179,0.161,0.257,0.244,0.239,0.142,0.086,south-southeast,0.8,No
2021/02/05,11:10,0.179,0.161,0.257,0.245,0.240,0.141,0.086,east,0.8,No
2021/02/05,11:20,0.178,0.161,0.257,0.243,0.239,0.142,0.085,west,6.1,No
2021/02/05,11:30,0.179,0.161,0.257,0.244,0.239,0.141,0.085,west-northwest,7.7,No
2021/02/05,11:40,0.178,0.160,0.258,0.244,0.239,0.142,0.085,west-northwest,9.2,No
2021/02/05,11:50,0.178,0.160,0.258,0.243,0.239,0.142,0.086,west,6.4,No
2021/02/05,12:00,0.181,0.161,0.259,0.244,0.239,0.142,0.086,west-southwest,10.6,No
2021/02/05,12:10,0.179,0.161,0.258,0.243,0.239,0.142,0.085,west-southwest,12.3,No
2021/02/05,12:20,0.180,0.160,0.259,0.245,0.239,0.142,0.086,west-southwest,15.5,No
2021/02/05,12:30,0.178,0.160,0.257,0.244,0.240,0.141,0.085,west,13.7,No
2021/02/05,12:40,0.180,0.161,0.257,0.244,0.241,0.142,0.086,west,11.7,No
2021/02/05,12:50,0.179,0.161,0.260,0.244,0.239,0.142,0.086,west,12.8,No
2021/02/05,13:00,0.179,0.160,0.259,0.243,0.240,0.142,0.085,west,16.4,No
2021/02/05,13:10,0.179,0.161,0.258,0.244,0.240,0.142,0.085,west-southwest,14.3,No
2021/02/05,13:20,0.179,0.161,0.258,0.245,0.240,0.143,0.086,west,10.9,No
2021/02/05,13:30,0.180,0.161,0.259,0.244,0.241,0.142,0.086,west,12.0,No
2021/02/05,13:40,0.179,0.161,0.257,0.245,0.238,0.142,0.085,west,11.2,No
2021/02/05,13:50,0.179,0.162,0.259,0.245,0.240,0.143,0.085,west,9.0,No
2021/02/05,14:00,0.179,0.161,0.259,0.245,0.241,0.144,0.086,west,6.3,No
2021/02/05,14:10,0.179,0.162,0.260,0.244,0.241,0.142,0.086,west,3.5,No
2021/02/05,14:20,0.180,0.162,0.259,0.247,0.241,0.141,0.086,west-northwest,3.6,No
2021/02/05,14:30,0.180,0.161,0.260,0.246,0.241,0.142,0.086,west,3.6,No
2021/02/05,14:40,0.181,0.161,0.259,0.246,0.240,0.142,0.086,west,5.3,No
2021/02/05,14:50,0.180,0.161,0.259,0.245,0.241,0.142,0.085,west,7.5,No
2021/02/05,15:00,0.180,0.161,0.258,0.245,0.240,0.142,0.085,west,11.5,No
2021/02/05,15:10,0.180,0.161,0.258,0.245,0.240,0.142,0.086,west,8.1,No
2021/02/05,15:20,0.179,0.161,0.258,0.244,0.241,0.142,0.086,west,8.1,No
2021/02/05,15:30,0.180,0.161,0.258,0.245,0.240,0.143,0.086,west,7.0,No
2021/02/05,15:40,0.179,0.162,0.258,0.246,0.239,0.142,0.085,west,7.5,No
2021/02/05,15:50,0.180,0.161,0.260,0.245,0.240,0.142,0.086,west,5.0,No
2021/02/05,16:00,0.181,0.162,0.259,0.245,0.240,0.142,0.086,west,4.5,No
2021/02/05,16:10,0.180,0.162,0.258,0.244,0.240,0.141,0.086,west,1.0,No
2021/02/05,16:20,0.180,0.163,0.260,0.245,0.240,0.142,0.086,south,2.1,No
2021/02/05,16:30,0.180,0.162,0.259,0.245,0.240,0.142,0.086,southwest,2.5,No
2021/02/05,16:40,0.181,0.162,0.259,0.245,0.240,0.143,0.086,south-southwest,4.7,No
2021/02/05,16:50,0.179,0.160,0.260,0.245,0.240,0.142,0.086,south-southwest,4.8,No
2021/02/05,17:00,0.180,0.163,0.258,0.246,0.241,0.143,0.086,southwest,5.2,No
2021/02/05,17:10,0.180,0.162,0.259,0.244,0.240,0.142,0.085,southwest,4.7,No
2021/02/05,17:20,0.180,0.161,0.258,0.245,0.241,0.143,0.086,south-southwest,5.1,No
2021/02/05,17:30,0.179,0.162,0.258,0.245,0.239,0.142,0.086,southwest,5.5,No
2021/02/05,17:40,0.180,0.162,0.259,0.244,0.240,0.143,0.085,southwest,4.7,No
2021/02/05,17:50,0.181,0.162,0.259,0.246,0.238,0.142,0.086,southwest,4.9,No
2021/02/05,18:00,0.180,0.162,0.258,0.246,0.240,0.144,0.086,south-southwest,4.0,No
2021/02/05,18:10,0.179,0.160,0.258,0.246,0.240,0.142,0.086,southwest,4.1,No
2021/02/05,18:20,0.179,0.162,0.259,0.246,0.240,0.141,0.086,south-southwest,4.0,No
2021/02/05,18:30,0.180,0.161,0.260,0.246,0.241,0.141,0.086,southwest,3.6,No
2021/02/05,18:40,0.180,0.161,0.259,0.246,0.241,0.142,0.087,southwest,5.7,No
2021/02/05,18:50,0.180,0.163,0.257,0.245,0.240,0.143,0.087,southwest,6.1,No
2021/02/05,19:00,0.180,0.160,0.259,0.246,0.239,0.143,0.085,southwest,5.4,No
2021/02/05,19:10,0.180,0.161,0.259,0.245,0.239,0.143,0.086,southwest,5.8,No
2021/02/05,19:20,0.180,0.161,0.258,0.246,0.239,0.142,0.086,southwest,8.1,No
2021/02/05,19:30,0.179,0.161,0.258,0.245,0.242,0.143,0.086,southwest,6.8,No
2021/02/05,19:40,0.180,0.161,0.259,0.246,0.240,0.142,0.086,southwest,6.1,No
2021/02/05,19:50,0.179,0.162,0.259,0.245,0.240,0.143,0.085,southwest,5.8,No
2021/02/05,20:00,0.181,0.161,0.259,0.246,0.239,0.143,0.086,west-southwest,6.3,No
2021/02/05,20:10,0.181,0.161,0.259,0.247,0.240,0.142,0.086,west-southwest,6.7,No
2021/02/05,20:20,0.180,0.161,0.259,0.244,0.240,0.143,0.087,west-southwest,7.3,No
2021/02/05,20:30,0.180,0.162,0.258,0.245,0.240,0.143,0.086,west-southwest,6.3,No
2021/02/05,20:40,0.180,0.161,0.259,0.246,0.240,0.142,0.085,west,5.8,No
2021/02/05,20:50,0.181,0.162,0.259,0.246,0.239,0.142,0.086,west,5.7,No
2021/02/05,21:00,0.180,0.162,0.260,0.245,0.239,0.142,0.086,west,4.9,No
2021/02/05,21:10,0.180,0.161,0.259,0.244,0.240,0.143,0.086,west,3.9,No
2021/02/05,21:20,0.180,0.162,0.259,0.244,0.240,0.143,0.086,west-southwest,3.4,No
2021/02/05,21:30,0.179,0.162,0.259,0.246,0.240,0.142,0.086,west,3.7,No
2021/02/05,21:40,0.180,0.161,0.259,0.245,0.240,0.143,0.086,west,4.6,No
2021/02/05,21:50,0.181,0.161,0.258,0.246,0.241,0.142,0.086,west,5.2,No
2021/02/05,22:00,0.180,0.161,0.260,0.246,0.240,0.143,0.086,west,4.3,No
2021/02/05,22:10,0.180,0.162,0.259,0.245,0.241,0.143,0.085,west,4.4,No
2021/02/05,22:20,0.180,0.163,0.259,0.245,0.239,0.142,0.086,west,5.3,No
2021/02/05,22:30,0.180,0.163,0.259,0.245,0.239,0.142,0.085,west,5.3,No
2021/02/05,22:40,0.181,0.162,0.259,0.246,0.240,0.142,0.086,west,5.3,No
2021/02/05,22:50,0.179,0.162,0.259,0.245,0.240,0.142,0.086,west,5.5,No
2021/02/05,23:00,0.181,0.162,0.259,0.246,0.239,0.143,0.086,west,6.0,No
2021/02/05,23:10,0.180,0.162,0.259,0.245,0.240,0.143,0.086,west,5.6,No
2021/02/05,23:20,0.180,0.163,0.258,0.246,0.240,0.142,0.086,west,4.3,No
2021/02/05,23:30,0.180,0.162,0.259,0.246,0.239,0.142,0.086,west,3.1,No
2021/02/05,23:40,0.180,0.162,0.258,0.245,0.240,0.142,0.087,west,3.4,No
2021/02/05,23:50,0.179,0.161,0.260,0.245,0.241,0.142,0.086,west-northwest,4.0,No
